TimePDT,TemperatureF,Dew PointF,Humidity,Sea Level PressureIn,VisibilityMPH,Wind Direction,Wind SpeedMPH,Gust SpeedMPH,PrecipitationIn,Events,Conditions,WindDirDegrees,DateUTC
12:15 AM,62.6,57.2,82,29.87,10.0,Calm,Calm,-,N/A,,Scattered Clouds,0,2013-08-23 07:15:00
12:35 AM,64.4,57.2,77,29.87,10.0,Calm,Calm,-,N/A,,Scattered Clouds,0,2013-08-23 07:35:00
12:55 AM,64.4,55.4,73,29.88,10.0,Calm,Calm,-,N/A,,Mostly Cloudy,0,2013-08-23 07:55:00
1:15 AM,66.2,53.6,64,29.88,10.0,Calm,Calm,-,N/A,,Mostly Cloudy,0,2013-08-23 08:15:00
1:35 AM,66.2,53.6,64,29.88,10.0,WSW,5.8,-,N/A,,Scattered Clouds,250,2013-08-23 08:35:00
1:55 AM,66.2,53.6,64,29.89,10.0,Calm,Calm,-,N/A,,Partly Cloudy,0,2013-08-23 08:55:00
2:15 AM,64.4,53.6,68,29.89,10.0,Calm,Calm,-,N/A,,Partly Cloudy,0,2013-08-23 09:15:00
2:35 AM,64.4,53.6,68,29.90,10.0,Calm,Calm,-,N/A,,Mostly Cloudy,0,2013-08-23 09:35:00
2:55 AM,64.4,55.4,73,29.90,10.0,West,3.5,-,N/A,,Scattered Clouds,260,2013-08-23 09:55:00
3:15 AM,62.6,55.4,77,29.90,10.0,Calm,Calm,-,N/A,,Mostly Cloudy,0,2013-08-23 10:15:00
3:35 AM,62.6,55.4,77,29.90,10.0,Calm,Calm,-,N/A,,Mostly Cloudy,0,2013-08-23 10:35:00
3:55 AM,62.6,55.4,77,29.90,10.0,Calm,Calm,-,N/A,,Mostly Cloudy,0,2013-08-23 10:55:00
4:15 AM,62.6,55.4,77,29.89,10.0,Calm,Calm,-,N/A,,Mostly Cloudy,0,2013-08-23 11:15:00
4:35 AM,60.8,57.2,88,29.89,10.0,WSW,3.5,-,N/A,,Mostly Cloudy,250,2013-08-23 11:35:00
4:55 AM,60.8,57.2,88,29.89,10.0,Calm,Calm,-,N/A,,Mostly Cloudy,0,2013-08-23 11:55:00
5:15 AM,60.8,57.2,88,29.90,10.0,Calm,Calm,-,N/A,,Overcast,0,2013-08-23 12:15:00
5:35 AM,59.0,57.2,94,29.90,10.0,Calm,Calm,-,N/A,,Overcast,0,2013-08-23 12:35:00
5:55 AM,59.0,57.2,94,29.89,10.0,Calm,Calm,-,N/A,,Mostly Cloudy,0,2013-08-23 12:55:00
6:15 AM,59.0,57.2,94,29.89,10.0,Calm,Calm,-,N/A,,Mostly Cloudy,0,2013-08-23 13:15:00
6:35 AM,59.0,57.2,94,29.89,10.0,Calm,Calm,-,N/A,,Mostly Cloudy,0,2013-08-23 13:35:00
6:55 AM,59.0,57.2,94,29.90,10.0,Calm,Calm,-,N/A,,Mostly Cloudy,0,2013-08-23 13:55:00
7:15 AM,59.0,57.2,94,29.90,10.0,Calm,Calm,-,N/A,,Mostly Cloudy,0,2013-08-23 14:15:00
7:35 AM,60.8,57.2,88,29.91,10.0,Calm,Calm,-,N/A,,Overcast,0,2013-08-23 14:35:00
7:55 AM,60.8,57.2,88,29.91,10.0,Calm,Calm,-,N/A,,Overcast,0,2013-08-23 14:55:00
8:15 AM,62.6,57.2,82,29.92,10.0,Calm,Calm,-,N/A,,Overcast,0,2013-08-23 15:15:00
8:35 AM,62.6,57.2,82,29.92,10.0,Calm,Calm,-,N/A,,Overcast,0,2013-08-23 15:35:00
8:55 AM,62.6,57.2,82,29.92,10.0,Calm,Calm,-,N/A,,Mostly Cloudy,0,2013-08-23 15:55:00
9:15 AM,62.6,57.2,82,29.92,10.0,West,4.6,-,N/A,,Mostly Cloudy,260,2013-08-23 16:15:00
9:35 AM,62.6,57.2,82,29.93,10.0,Calm,Calm,-,N/A,,Overcast,0,2013-08-23 16:35:00
9:55 AM,64.4,57.2,77,29.92,10.0,Calm,Calm,-,N/A,,Overcast,0,2013-08-23 16:55:00
10:15 AM,64.4,57.2,77,29.92,10.0,Calm,Calm,-,N/A,,Overcast,0,2013-08-23 17:15:00
10:35 AM,64.4,57.2,77,29.92,10.0,SSW,3.5,-,N/A,,Overcast,210,2013-08-23 17:35:00
10:55 AM,66.2,57.2,73,29.92,10.0,Calm,Calm,-,N/A,,Mostly Cloudy,0,2013-08-23 17:55:00
11:15 AM,68.0,57.2,68,29.92,10.0,Calm,Calm,-,N/A,,Mostly Cloudy,0,2013-08-23 18:15:00
11:35 AM,71.6,57.2,60,29.91,10.0,WSW,3.5,-,N/A,,Mostly Cloudy,250,2013-08-23 18:35:00
11:55 AM,71.6,57.2,60,29.91,10.0,West,8.1,-,N/A,,Mostly Cloudy,270,2013-08-23 18:55:00
12:15 PM,71.6,57.2,60,29.92,10.0,WSW,9.2,-,N/A,,Mostly Cloudy,240,2013-08-23 19:15:00
12:35 PM,71.6,57.2,60,29.92,10.0,WNW,3.5,-,N/A,,Mostly Cloudy,290,2013-08-23 19:35:00
12:55 PM,71.6,57.2,60,29.92,10.0,WSW,10.4,-,N/A,,Mostly Cloudy,240,2013-08-23 19:55:00
1:15 PM,71.6,55.4,57,29.92,10.0,SW,4.6,-,N/A,,Mostly Cloudy,220,2013-08-23 20:15:00
1:35 PM,69.8,55.4,60,29.92,10.0,Calm,Calm,-,N/A,,Mostly Cloudy,0,2013-08-23 20:35:00
1:55 PM,71.6,55.4,57,29.92,10.0,WSW,5.8,-,N/A,,Mostly Cloudy,240,2013-08-23 20:55:00
2:15 PM,71.6,55.4,57,29.92,10.0,WSW,6.9,-,N/A,,Mostly Cloudy,240,2013-08-23 21:15:00
2:35 PM,73.4,55.4,53,29.91,10.0,West,5.8,-,N/A,,Mostly Cloudy,270,2013-08-23 21:35:00
2:55 PM,73.4,53.6,50,29.91,10.0,WSW,9.2,-,N/A,,Mostly Cloudy,240,2013-08-23 21:55:00
3:15 PM,75.2,53.6,47,29.90,10.0,SW,4.6,-,N/A,,Overcast,230,2013-08-23 22:15:00
3:35 PM,75.2,53.6,47,29.90,10.0,SW,3.5,-,N/A,,Overcast,230,2013-08-23 22:35:00
3:55 PM,73.4,53.6,50,29.90,10.0,West,4.6,-,N/A,,Mostly Cloudy,260,2013-08-23 22:55:00
4:15 PM,73.4,53.6,50,29.90,10.0,West,6.9,-,N/A,,Mostly Cloudy,260,2013-08-23 23:15:00
4:35 PM,75.2,53.6,47,29.90,10.0,West,9.2,-,N/A,,Mostly Cloudy,280,2013-08-23 23:35:00
4:55 PM,73.4,53.6,50,29.90,10.0,Calm,Calm,-,N/A,,Overcast,0,2013-08-23 23:55:00
5:15 PM,73.4,53.6,50,29.89,10.0,West,3.5,-,N/A,,Overcast,270,2013-08-24 00:15:00
5:35 PM,73.4,55.4,53,29.89,10.0,West,8.1,-,N/A,,Overcast,270,2013-08-24 00:35:00
5:55 PM,71.6,55.4,57,29.89,10.0,WSW,5.8,-,N/A,,Overcast,240,2013-08-24 00:55:00
6:15 PM,71.6,55.4,57,29.89,10.0,Calm,Calm,-,N/A,,Overcast,0,2013-08-24 01:15:00
6:35 PM,71.6,55.4,57,29.89,10.0,Calm,Calm,-,N/A,,Mostly Cloudy,0,2013-08-24 01:35:00
6:55 PM,71.6,55.4,57,29.89,10.0,Calm,Calm,-,N/A,,Overcast,0,2013-08-24 01:55:00
7:15 PM,71.6,53.6,53,29.89,10.0,Calm,Calm,-,N/A,,Overcast,0,2013-08-24 02:15:00
7:35 PM,69.8,53.6,56,29.89,10.0,Calm,Calm,-,N/A,,Mostly Cloudy,0,2013-08-24 02:35:00
7:55 PM,68.0,53.6,60,29.89,10.0,WSW,6.9,-,N/A,,Overcast,250,2013-08-24 02:55:00
8:15 PM,68.0,53.6,60,29.89,10.0,Calm,Calm,-,N/A,,Overcast,0,2013-08-24 03:15:00
8:35 PM,66.2,55.4,68,29.90,10.0,Calm,Calm,-,N/A,,Mostly Cloudy,0,2013-08-24 03:35:00
8:55 PM,64.4,55.4,73,29.91,10.0,Calm,Calm,-,N/A,,Overcast,0,2013-08-24 03:55:00
9:15 PM,64.4,55.4,73,29.92,10.0,Calm,Calm,-,N/A,,Overcast,0,2013-08-24 04:15:00
9:35 PM,62.6,55.4,77,29.92,10.0,Calm,Calm,-,N/A,,Overcast,0,2013-08-24 04:35:00
9:55 PM,62.6,55.4,77,29.92,10.0,Calm,Calm,-,N/A,,Mostly Cloudy,0,2013-08-24 04:55:00
10:15 PM,60.8,57.2,88,29.92,10.0,Calm,Calm,-,N/A,,Mostly Cloudy,0,2013-08-24 05:15:00
10:35 PM,59.0,55.4,88,29.92,10.0,Calm,Calm,-,N/A,,Mostly Cloudy,0,2013-08-24 05:35:00
10:55 PM,57.2,55.4,94,29.92,10.0,Calm,Calm,-,N/A,,Overcast,0,2013-08-24 05:55:00
11:15 PM,59.0,57.2,94,29.92,10.0,Calm,Calm,-,N/A,,Overcast,0,2013-08-24 06:15:00
11:35 PM,59.0,57.2,94,29.92,10.0,Calm,Calm,-,N/A,,Overcast,0,2013-08-24 06:35:00
11:55 PM,59.0,57.2,94,29.92,10.0,Calm,Calm,-,N/A,,Overcast,0,2013-08-24 06:55:00